Time,TemperatureF,DewpointF,PressureIn,WindDirection,WindDirectionDegrees,WindSpeedMPH,WindSpeedGustMPH,Humidity,HourlyPrecipIn,Conditions,Clouds,dailyrainin,SolarRadiationWatts/m^2,SoftwareType,DateUTC
2013-06-25 00:01:00,55.0,47.0,-100.00,North,6,5.0,6.0,71,-99.99,,,-99.99,0.070000,,2013-06-25 06:01:00,
2013-06-25 00:11:00,54.0,46.0,-100.00,NE,36,3.0,5.0,72,-99.99,,,-99.99,0.040000,,2013-06-25 06:11:00,
2013-06-25 00:21:00,54.0,46.0,-100.00,NE,39,2.0,3.0,73,-99.99,,,-99.99,0.040000,,2013-06-25 06:21:00,
2013-06-25 00:33:00,53.0,45.0,-100.00,NNE,14,5.0,5.0,74,-99.99,,,-99.99,0.040000,,2013-06-25 06:33:00,
2013-06-25 00:43:00,54.0,45.0,-100.00,NE,41,4.0,7.0,71,-99.99,,,-99.99,0.020000,,2013-06-25 06:43:00,
2013-06-25 00:52:00,54.0,44.0,-100.00,NNE,18,7.0,8.0,69,-99.99,,,-99.99,0.010000,,2013-06-25 06:52:00,
2013-06-25 01:02:00,53.0,44.0,-100.00,NNE,17,5.0,6.0,71,-99.99,,,-99.99,0.000000,,2013-06-25 07:02:00,
2013-06-25 01:11:00,53.0,44.0,-100.00,NNE,17,5.0,6.0,71,-99.99,,,-99.99,0.000000,,2013-06-25 07:11:00,
2013-06-25 01:22:00,52.0,44.0,-100.00,NNE,19,4.0,5.0,72,-99.99,,,-99.99,0.000000,,2013-06-25 07:22:00,
2013-06-25 01:33:00,52.0,43.0,-100.00,NNE,23,8.0,8.0,72,-99.99,,,-99.99,0.000000,,2013-06-25 07:33:00,
2013-06-25 01:43:00,53.0,43.0,-100.00,NNE,26,3.0,6.0,69,-99.99,,,-99.99,0.000000,,2013-06-25 07:43:00,
2013-06-25 02:11:00,51.0,43.0,-100.00,SSW,206,1.0,2.0,75,-99.99,,,-99.99,0.000000,,2013-06-25 08:11:00,
2013-06-25 02:33:00,50.0,43.0,-100.00,NE,47,3.0,4.0,78,-99.99,,,-99.99,0.000000,,2013-06-25 08:33:00,
2013-06-25 02:52:00,48.0,42.0,-100.00,North,6,5.0,5.0,80,-99.99,,,-99.99,0.000000,,2013-06-25 08:52:00,
2013-06-25 03:12:00,47.0,42.0,-100.00,NNW,342,4.0,4.0,82,-99.99,,,-99.99,0.000000,,2013-06-25 09:12:00,
2013-06-25 03:33:00,48.0,43.0,-100.00,NNE,12,8.0,9.0,80,-99.99,,,-99.99,0.000000,,2013-06-25 09:33:00,
2013-06-25 03:43:00,48.0,42.0,-100.00,NNW,339,1.0,4.0,80,-99.99,,,-99.99,0.000000,,2013-06-25 09:43:00,
2013-06-25 04:11:00,47.0,42.0,-100.00,ESE,113,1.0,2.0,81,-99.99,,,-99.99,0.000000,,2013-06-25 10:11:00,
2013-06-25 04:33:00,46.0,42.0,-100.00,NNW,343,2.0,2.0,85,-99.99,,,-99.99,0.000000,,2013-06-25 10:33:00,
2013-06-25 04:42:00,46.0,42.0,-100.00,NNE,16,2.0,4.0,83,-99.99,,,-99.99,0.000000,,2013-06-25 10:42:00,
2013-06-25 05:01:00,46.0,42.0,-100.00,NW,312,3.0,3.0,85,-99.99,,,-99.99,0.000000,,2013-06-25 11:01:00,
2013-06-25 05:21:00,47.0,43.0,-100.00,WNW,288,1.0,2.0,83,-99.99,,,-99.99,0.000000,,2013-06-25 11:21:00,
2013-06-25 05:43:00,47.0,42.0,-100.00,SSE,167,3.0,4.0,83,-99.99,,,-99.99,0.000000,,2013-06-25 11:43:00,
2013-06-25 05:52:00,48.0,43.0,-100.00,SSE,160,3.0,4.0,82,-99.99,,,-99.99,0.000000,,2013-06-25 11:52:00,
2013-06-25 06:11:00,47.0,42.0,-100.00,WSW,256,1.0,2.0,84,-99.99,,,-99.99,0.260000,,2013-06-25 12:11:00,
2013-06-25 06:22:00,47.0,42.0,-100.00,WSW,256,1.0,2.0,84,-99.99,,,-99.99,0.260000,,2013-06-25 12:22:00,
2013-06-25 06:43:00,47.0,42.0,-100.00,NNE,13,3.0,5.0,85,-99.99,,,-99.99,7.280000,,2013-06-25 12:43:00,
2013-06-25 07:01:00,48.0,42.0,-100.00,ESE,104,1.0,3.0,82,-99.99,,,-99.99,11.720000,,2013-06-25 13:01:00,
2013-06-25 07:22:00,47.0,42.0,-100.00,West,259,1.0,5.0,83,-99.99,,,-99.99,39.430000,,2013-06-25 13:22:00,
2013-06-25 07:53:00,50.0,44.0,-100.00,East,96,3.0,4.0,80,-99.99,,,-99.99,91.599998,,2013-06-25 13:53:00,
2013-06-25 08:01:00,51.0,44.0,-100.00,North,0,0.0,2.0,78,-99.99,,,-99.99,83.900002,,2013-06-25 14:01:00,
2013-06-25 08:22:00,51.0,45.0,-100.00,WSW,247,0.0,1.0,78,-99.99,,,-99.99,162.800003,,2013-06-25 14:22:00,
2013-06-25 08:34:00,54.0,45.0,-100.00,West,263,2.0,2.0,70,-99.99,,,-99.99,140.600006,,2013-06-25 14:34:00,
2013-06-25 09:01:00,57.0,46.0,-100.00,South,181,4.0,5.0,65,-99.99,,,-99.99,261.799988,,2013-06-25 15:01:00,
2013-06-25 09:22:00,57.0,45.0,-100.00,South,169,3.0,5.0,64,-99.99,,,-99.99,239.199997,,2013-06-25 15:22:00,
2013-06-25 09:32:00,57.0,45.0,-100.00,SSW,210,3.0,4.0,64,-99.99,,,-99.99,270.700012,,2013-06-25 15:32:00,
2013-06-25 09:44:00,58.0,45.0,-100.00,SSW,202,3.0,3.0,61,-99.99,,,-99.99,276.600006,,2013-06-25 15:44:00,
2013-06-25 10:12:00,58.0,46.0,-100.00,South,185,5.0,6.0,62,-99.99,,,-99.99,242.000000,,2013-06-25 16:12:00,
2013-06-25 10:23:00,59.0,46.0,-100.00,South,190,4.0,5.0,62,-99.99,,,-99.99,268.899994,,2013-06-25 16:23:00,
2013-06-25 10:34:00,60.0,46.0,-100.00,SSW,205,4.0,5.0,59,-99.99,,,-99.99,430.500000,,2013-06-25 16:34:00,
2013-06-25 10:43:00,62.0,45.0,-100.00,South,176,6.0,8.0,54,-99.99,,,-99.99,364.500000,,2013-06-25 16:43:00,
2013-06-25 11:01:00,63.0,46.0,-100.00,SSW,202,5.0,7.0,54,-99.99,,,-99.99,616.700012,,2013-06-25 17:01:00,
2013-06-25 11:11:00,65.0,46.0,-100.00,SSE,166,7.0,9.0,50,-99.99,,,-99.99,510.200012,,2013-06-25 17:11:00,
2013-06-25 11:22:00,66.0,44.0,-100.00,SSE,154,7.0,8.0,43,-99.99,,,-99.99,956.000000,,2013-06-25 17:22:00,
2013-06-25 11:44:00,70.0,44.0,-100.00,SSW,200,8.0,11.0,39,-99.99,,,-99.99,1144.000000,,2013-06-25 17:44:00,
2013-06-25 11:53:00,70.0,44.0,-100.00,SSW,200,8.0,11.0,39,-99.99,,,-99.99,1144.000000,,2013-06-25 17:53:00,
2013-06-25 12:12:00,71.0,41.0,-100.00,South,187,10.0,16.0,33,-99.99,,,-99.99,1114.000000,,2013-06-25 18:12:00,
2013-06-25 12:22:00,73.0,43.0,-100.00,SSE,168,11.0,13.0,33,-99.99,,,-99.99,978.000000,,2013-06-25 18:22:00,
2013-06-25 12:34:00,73.0,41.0,-100.00,South,181,11.0,14.0,31,-99.99,,,-99.99,1103.000000,,2013-06-25 18:34:00,
2013-06-25 12:44:00,74.0,40.0,-100.00,South,182,13.0,17.0,28,-99.99,,,-99.99,1085.000000,,2013-06-25 18:44:00,
2013-06-25 12:52:00,74.0,39.0,-100.00,South,188,17.0,20.0,28,-99.99,,,-99.99,1109.000000,,2013-06-25 18:52:00,
2013-06-25 13:11:00,75.0,40.0,-100.00,SSW,192,13.0,18.0,28,-99.99,,,-99.99,1143.000000,,2013-06-25 19:11:00,
2013-06-25 13:22:00,75.0,40.0,-100.00,SSW,192,13.0,18.0,28,-99.99,,,-99.99,1143.000000,,2013-06-25 19:22:00,
2013-06-25 13:33:00,75.0,39.0,-100.00,South,190,12.0,17.0,27,-99.99,,,-99.99,927.000000,,2013-06-25 19:33:00,
2013-06-25 13:44:00,74.0,40.0,-100.00,SSW,193,12.0,15.0,29,-99.99,,,-99.99,376.700012,,2013-06-25 19:44:00,
2013-06-25 14:01:00,72.0,40.0,-100.00,SW,215,8.0,14.0,31,-99.99,,,-99.99,216.100006,,2013-06-25 20:01:00,
2013-06-25 14:11:00,74.0,40.0,-100.00,SSW,195,9.0,16.0,29,-99.99,,,-99.99,385.100006,,2013-06-25 20:11:00,
2013-06-25 14:21:00,76.0,41.0,-100.00,South,185,12.0,14.0,28,-99.99,,,-99.99,943.000000,,2013-06-25 20:21:00,
2013-06-25 14:33:00,77.0,40.0,-100.00,South,189,13.0,22.0,25,-99.99,,,-99.99,1117.000000,,2013-06-25 20:33:00,
2013-06-25 14:42:00,78.0,38.0,-100.00,South,177,16.0,20.0,23,-99.99,,,-99.99,1125.000000,,2013-06-25 20:42:00,
2013-06-25 14:52:00,78.0,39.0,-100.00,South,189,14.0,17.0,24,-99.99,,,-99.99,1103.000000,,2013-06-25 20:52:00,
2013-06-25 15:22:00,78.0,38.0,-100.00,South,191,13.0,20.0,23,-99.99,,,-99.99,1006.000000,,2013-06-25 21:22:00,
2013-06-25 15:33:00,78.0,38.0,-100.00,South,191,13.0,20.0,23,-99.99,,,-99.99,1006.000000,,2013-06-25 21:33:00,
2013-06-25 16:01:00,80.0,38.0,-100.00,South,189,9.0,14.0,22,-99.99,,,-99.99,997.000000,,2013-06-25 22:01:00,
2013-06-25 16:11:00,79.0,38.0,-100.00,South,189,18.0,22.0,22,-99.99,,,-99.99,697.799988,,2013-06-25 22:11:00,
2013-06-25 16:22:00,77.0,39.0,-100.00,SSW,205,11.0,16.0,24,-99.99,,,-99.99,437.500000,,2013-06-25 22:22:00,
2013-06-25 16:42:00,81.0,38.0,-100.00,South,186,13.0,21.0,21,-99.99,,,-99.99,865.000000,,2013-06-25 22:42:00,
2013-06-25 17:01:00,80.0,37.0,-100.00,SSW,210,14.0,17.0,21,-99.99,,,-99.99,832.000000,,2013-06-25 23:01:00,
2013-06-25 17:22:00,80.0,35.0,-100.00,SSW,203,15.0,20.0,20,-99.99,,,-99.99,775.500000,,2013-06-25 23:22:00,
2013-06-25 17:43:00,81.0,38.0,-100.00,SSW,211,11.0,18.0,21,-99.99,,,-99.99,773.700012,,2013-06-25 23:43:00,
2013-06-25 19:43:00,79.0,39.0,-100.00,South,183,8.0,10.0,23,-99.99,,,-99.99,169.500000,,2013-06-26 01:43:00,
2013-06-25 20:01:00,78.0,38.0,-100.00,South,188,4.0,8.0,24,-99.99,,,-99.99,199.000000,,2013-06-26 02:01:00,
2013-06-25 20:11:00,78.0,38.0,-100.00,South,188,4.0,8.0,24,-99.99,,,-99.99,199.000000,,2013-06-26 02:11:00,
2013-06-25 20:43:00,69.0,41.0,-100.00,North,6,6.0,8.0,37,-99.99,,,-99.99,17.340000,,2013-06-26 02:43:00,
2013-06-25 20:53:00,69.0,41.0,-100.00,North,6,6.0,8.0,37,-99.99,,,-99.99,17.340000,,2013-06-26 02:53:00,
2013-06-25 21:11:00,67.0,41.0,-100.00,NNE,14,9.0,9.0,37,-99.99,,,-99.99,7.570000,,2013-06-26 03:11:00,
2013-06-25 21:22:00,67.0,41.0,-100.00,NNE,14,9.0,9.0,37,-99.99,,,-99.99,7.570000,,2013-06-26 03:22:00,
2013-06-25 21:33:00,65.0,41.0,-100.00,NNE,20,10.0,10.0,41,-99.99,,,-99.99,1.280000,,2013-06-26 03:33:00,
2013-06-25 21:43:00,65.0,41.0,-100.00,NNE,20,10.0,10.0,41,-99.99,,,-99.99,1.280000,,2013-06-26 03:43:00,
2013-06-25 21:52:00,63.0,42.0,-100.00,North,9,6.0,8.0,45,-99.99,,,-99.99,0.190000,,2013-06-26 03:52:00,
2013-06-25 22:11:00,62.0,43.0,-100.00,North,2,6.0,6.0,50,-99.99,,,-99.99,0.120000,,2013-06-26 04:11:00,
2013-06-25 22:33:00,61.0,43.0,-100.00,NNW,343,3.0,4.0,50,-99.99,,,-99.99,0.160000,,2013-06-26 04:33:00,
2013-06-25 22:43:00,60.0,42.0,-100.00,North,6,5.0,7.0,51,-99.99,,,-99.99,0.150000,,2013-06-26 04:43:00,
2013-06-25 23:11:00,59.0,43.0,-100.00,NNE,14,7.0,8.0,56,-99.99,,,-99.99,0.020000,,2013-06-26 05:11:00,
2013-06-25 23:21:00,59.0,43.0,-100.00,NNE,14,7.0,8.0,56,-99.99,,,-99.99,0.020000,,2013-06-26 05:21:00,
2013-06-25 23:43:00,59.0,43.0,-100.00,North,4,6.0,7.0,55,-99.99,,,-99.99,0.020000,,2013-06-26 05:43:00,
2013-06-25 23:52:00,59.0,44.0,-100.00,NNW,337,2.0,4.0,55,-99.99,,,-99.99,0.010000,,2013-06-26 05:52:00,